| time (UTC) | temp F | wind direction | speed MPH | gust MPH | rain 1hr in | rain 24hr in | rain mn in | humidity % | barometer mb |
| 20260904041559 | 74 | 0 | 0.0 | 0.0 | 0.00 | 0.00 | 0.00 | 91 | 1012.8 |
| 20260904040056 | 74 | 0 | 0.0 | 0.0 | 0.00 | 0.00 | 0.00 | 91 | 1013.1 |
| 20260904034558 | 74 | 0 | 0.0 | 0.0 | 0.00 | 0.00 | 0.00 | 91 | 1013.0 |
| 20260904033103 | 74 | 0 | 0.0 | 0.0 | 0.00 | 0.00 | 0.00 | 91 | 1013.5 |
| 20260904031601 | 74 | 0 | 0.0 | 0.0 | 0.00 | 0.00 | 0.00 | 91 | 1013.7 |
| 20260904030108 | 74 | 0 | 0.0 | 0.0 | 0.00 | 0.00 | 0.00 | 90 | 1013.7 |
| 20260904024602 | 74 | 0 | 0.0 | 0.0 | 0.00 | 0.00 | 0.00 | 89 | 1013.4 |
| 20260904023102 | 74 | 0 | 0.0 | 0.0 | 0.00 | 0.00 | 0.00 | 88 | 1013.3 |
| 20260904021604 | 75 | 0 | 0.0 | 0.0 | 0.00 | 0.00 | 0.00 | 87 | 1013.6 |
| 20260904020101 | 75 | 0 | 0.0 | 0.0 | 0.00 | 0.00 | 0.00 | 87 | 1013.8 |
| 20260904014616 | 75 | 0 | 0.0 | 0.0 | 0.00 | 0.00 | 0.00 | 86 | 1013.9 |
| 20260904013058 | 76 | 0 | 0.0 | 0.0 | 0.00 | 0.00 | 0.00 | 86 | 1014.0 |
| 20260904011602 | 76 | 0 | 0.0 | 0.0 | 0.00 | 0.00 | 0.00 | 86 | 1014.2 |
| 20260904010057 | 76 | 0 | 0.0 | 0.0 | 0.00 | 0.00 | 0.00 | 85 | 1013.9 |
| 20260904004604 | 76 | 0 | 0.0 | 0.0 | 0.00 | 0.00 | 0.00 | 84 | 1013.9 |
| 20260904003055 | 77 | 0 | 0.0 | 0.0 | 0.00 | 0.00 | 0.00 | 83 | 1014.0 |
| 20260904001601 | 77 | 0 | 0.0 | 0.0 | 0.00 | 0.00 | 0.00 | 81 | 1013.6 |
| 20260904000100 | 78 | 0 | 0.0 | 0.0 | 0.00 | 0.00 | 0.00 | 79 | 1013.2 |
| 20260903234558 | 79 | 0 | 0.0 | 0.0 | 0.00 | 0.00 | 0.00 | 77 | 1013.5 |
| 20260903233056 | 79 | 0 | 0.0 | 0.0 | 0.00 | 0.00 | 0.00 | 76 | 1013.5 |
| 20260903231608 | 80 | 0 | 0.0 | 0.0 | 0.00 | 0.00 | 0.00 | 74 | 1013.4 |
| 20260903230100 | 81 | 0 | 0.0 | 0.0 | 0.00 | 0.00 | 0.00 | 72 | 1013.3 |
| 20260903224555 | 82 | 0 | 0.0 | 0.0 | 0.00 | 0.00 | 0.00 | 69 | 1013.3 |
| 20260903223101 | 83 | 0 | 0.0 | 0.0 | 0.00 | 0.00 | 0.00 | 66 | 1013.1 |
| 20260903221601 | 84 | 0 | 0.0 | 0.0 | 0.00 | 0.00 | 0.00 | 66 | 1013.3 |
| 20260903220121 | 84 | 0 | 0.0 | 1.0 | 0.00 | 0.00 | 0.00 | 63 | 1013.0 |
| 20260903214605 | 84 | 0 | 0.0 | 0.0 | 0.00 | 0.00 | 0.00 | 63 | 1012.9 |
| 20260903213059 | 85 | 0 | 0.0 | 7.0 | 0.00 | 0.00 | 0.00 | 61 | 1012.7 |
| 20260903211604 | 86 | 0 | 0.0 | 5.0 | 0.00 | 0.00 | 0.00 | 59 | 1012.9 |
| 20260903210114 | 87 | 0 | 1.0 | 5.0 | 0.00 | 0.00 | 0.00 | 60 | 1012.9 |
| 20260903204559 | 87 | 203 | 1.0 | 7.0 | 0.00 | 0.00 | 0.00 | 61 | 1012.9 |
| 20260903203107 | 86 | 0 | 0.0 | 5.0 | 0.00 | 0.00 | 0.00 | 62 | 1013.1 |
| 20260903201603 | 86 | 194 | 0.0 | 10.0 | 0.00 | 0.00 | 0.00 | 63 | 1013.3 |
| 20260903200059 | 86 | 0 | 0.0 | 9.0 | 0.00 | 0.00 | 0.00 | 62 | 1013.3 |
| 20260903194559 | 87 | 0 | 0.0 | 8.0 | 0.00 | 0.00 | 0.00 | 62 | 1013.2 |
| 20260903193056 | 87 | 192 | 1.0 | 9.0 | 0.00 | 0.00 | 0.00 | 59 | 1013.4 |
| 20260903191605 | 87 | 0 | 0.0 | 6.0 | 0.00 | 0.00 | 0.00 | 58 | 1013.5 |
| 20260903190104 | 87 | 0 | 1.0 | 8.0 | 0.00 | 0.00 | 0.00 | 61 | 1013.8 |
| 20260903184601 | 87 | 0 | 0.0 | 6.0 | 0.00 | 0.00 | 0.00 | 63 | 1013.9 |
| 20260903183100 | 86 | 192 | 0.0 | 8.0 | 0.00 | 0.00 | 0.00 | 63 | 1014.0 |
| 20260903181601 | 85 | 0 | 0.0 | 8.0 | 0.00 | 0.00 | 0.00 | 64 | 1014.1 |
| 20260903180104 | 85 | 0 | 1.0 | 7.0 | 0.00 | 0.00 | 0.00 | 63 | 1014.4 |
| 20260903174558 | 84 | 0 | 1.0 | 9.0 | 0.00 | 0.00 | 0.00 | 69 | 1014.5 |
| 20260903173106 | 83 | 0 | 0.0 | 10.0 | 0.00 | 0.00 | 0.00 | 65 | 1014.7 |
| 20260903171626 | 82 | 0 | 1.0 | 9.0 | 0.00 | 0.00 | 0.00 | 70 | 1014.9 |
| 20260903170108 | 81 | 0 | 0.0 | 7.0 | 0.00 | 0.00 | 0.00 | 75 | 1015.2 |
| 20260903164607 | 80 | 0 | 2.0 | 10.0 | 0.00 | 0.00 | 0.00 | 72 | 1015.4 |
| 20260903163102 | 78 | 360 | 2.0 | 9.0 | 0.00 | 0.00 | 0.00 | 82 | 1015.5 |
| 20260903161600 | 76 | 0 | 2.0 | 9.0 | 0.00 | 0.00 | 0.00 | 84 | 1015.6 |
| 20260903160106 | 76 | 0 | 0.0 | 9.0 | 0.00 | 0.00 | 0.00 | 89 | 1016.1 |
| 20260903154605 | 76 | 0 | 0.0 | 8.0 | 0.00 | 0.00 | 0.00 | 94 | 1016.3 |
| 20260903153109 | 75 | 0 | 0.0 | 9.0 | 0.00 | 0.00 | 0.00 | 97 | 1016.3 |
| 20260903151602 | 75 | 0 | 0.0 | 7.0 | 0.00 | 0.00 | 0.00 | 99 | 1016.4 |
| 20260903150105 | 74 | 0 | 1.0 | 10.0 | 0.00 | 0.00 | 0.00 | 100 | 1016.5 |
| 20260903144559 | 74 | 0 | 0.0 | 4.0 | 0.00 | 0.00 | 0.00 | 100 | 1016.4 |
| 20260903143112 | 73 | 0 | 0.0 | 9.0 | 0.00 | 0.00 | 0.00 | 100 | 1016.6 |
| 20260903141555 | 73 | 213 | 1.0 | 8.0 | 0.00 | 0.00 | 0.00 | 100 | 1016.4 |
| 20260903140109 | 72 | 0 | 0.0 | 8.0 | 0.00 | 0.00 | 0.00 | 100 | 1016.3 |
| 20260903134600 | 72 | 0 | 1.0 | 4.0 | 0.00 | 0.00 | 0.00 | 100 | 1016.1 |
| 20260903133110 | 71 | 215 | 0.0 | 5.0 | 0.00 | 0.00 | 0.00 | 100 | 1015.9 |
| 20260903131608 | 71 | 0 | 0.0 | 0.0 | 0.00 | 0.00 | 0.00 | 100 | 1015.9 |
| 20260903130107 | 70 | 0 | 0.0 | 5.0 | 0.00 | 0.00 | 0.00 | 100 | 1016.2 |
| 20260903124601 | 70 | 0 | 0.0 | 5.0 | 0.00 | 0.00 | 0.00 | 100 | 1016.2 |
| 20260903123059 | 69 | 0 | 0.0 | 6.0 | 0.00 | 0.00 | 0.00 | 100 | 1016.2 |
| 20260903121555 | 69 | 0 | 0.0 | 4.0 | 0.00 | 0.00 | 0.00 | 100 | 1016.0 |
| 20260903120055 | 69 | 0 | 0.0 | 5.0 | 0.00 | 0.00 | 0.00 | 100 | 1015.7 |
| 20260903114558 | 69 | 0 | 0.0 | 6.0 | 0.00 | 0.00 | 0.00 | 100 | 1014.9 |
| 20260903113056 | 68 | 0 | 0.0 | 5.0 | 0.00 | 0.00 | 0.00 | 100 | 1015.7 |
| 20260903111604 | 68 | 0 | 0.0 | 5.0 | 0.00 | 0.00 | 0.00 | 100 | 1016.3 |
| 20260903110059 | 69 | 0 | 1.0 | 6.0 | 0.00 | 0.00 | 0.00 | 100 | 1016.3 |
| 20260903104556 | 69 | 0 | 0.0 | 6.0 | 0.00 | 0.00 | 0.00 | 100 | 1016.9 |
| 20260903103059 | 69 | 0 | 0.0 | 0.0 | 0.00 | 0.00 | 0.00 | 100 | 1017.0 |
| 20260903101601 | 68 | 188 | 0.0 | 4.0 | 0.00 | 0.00 | 0.00 | 100 | 1016.3 |
| 20260903100056 | 68 | 0 | 0.0 | 0.0 | 0.00 | 0.00 | 0.00 | 100 | 1016.6 |
| 20260903094610 | 68 | 0 | 0.0 | 3.0 | 0.00 | 0.00 | 0.00 | 100 | 1016.6 |
| 20260903093107 | 68 | 0 | 0.0 | 3.0 | 0.00 | 0.00 | 0.00 | 100 | 1016.1 |
| 20260903091557 | 68 | 205 | 0.0 | 5.0 | 0.00 | 0.00 | 0.00 | 100 | 1016.2 |
| 20260903084600 | 67 | 0 | 0.0 | 0.0 | 0.00 | 0.00 | 0.00 | 100 | 1016.6 |
| 20260903083056 | 68 | 0 | 0.0 | 4.0 | 0.00 | 0.00 | 0.00 | 100 | 1018.1 |
| 20260903081555 | 68 | 0 | 0.0 | 0.0 | 0.00 | 0.00 | 0.00 | 100 | 1017.5 |
| 20260903080058 | 68 | 0 | 0.0 | 0.0 | 0.00 | 0.00 | 0.00 | 100 | 1018.1 |
| 20260903074558 | 68 | 0 | 0.0 | 0.0 | 0.00 | 0.00 | 0.00 | 100 | 1018.9 |
| 20260903073055 | 67 | 0 | 0.0 | 0.0 | 0.00 | 0.00 | 0.00 | 100 | 1017.8 |
| 20260903071602 | 67 | 0 | 0.0 | 0.0 | 0.00 | 0.00 | 0.00 | 100 | 1017.5 |
| 20260903070057 | 67 | 0 | 0.0 | 0.0 | 0.00 | 0.00 | 0.00 | 100 | 1017.4 |
| 20260903064556 | 68 | 0 | 0.0 | 0.0 | 0.00 | 0.00 | 0.00 | 100 | 1017.7 |
| 20260903063103 | 68 | 0 | 0.0 | 0.0 | 0.00 | 0.00 | 0.00 | 100 | 1017.7 |
| 20260903061607 | 68 | 0 | 0.0 | 0.0 | 0.00 | 0.00 | 0.00 | 100 | 1018.3 |
| 20260903060059 | 68 | 0 | 0.0 | 3.0 | 0.00 | 0.00 | 0.00 | 100 | 1017.2 |
| 20260903054553 | 68 | 0 | 0.0 | 0.0 | 0.00 | 0.00 | 0.00 | 100 | 1018.2 |
| 20260903053057 | 68 | 0 | 0.0 | 9.0 | 0.00 | 0.00 | 0.00 | 100 | 1018.8 |
| 20260903051603 | 68 | 0 | 1.0 | 8.0 | 0.00 | 0.00 | 0.00 | 100 | 1019.7 |
| 20260903050056 | 68 | 0 | 0.0 | 0.0 | 0.00 | 0.00 | 0.00 | 100 | 1018.8 |
| 20260903044559 | 68 | 0 | 1.0 | 8.0 | 0.00 | 0.00 | 0.00 | 100 | 1019.2 |
| 20260903043058 | 69 | 87 | 0.0 | 0.0 | 0.00 | 0.00 | 0.00 | 100 | 1018.9 |
| 20260903041559 | 69 | 0 | 0.0 | 0.0 | 0.00 | 0.00 | 0.00 | 100 | 1018.8 |
| 20260903040105 | 69 | 0 | 0.0 | 4.0 | 0.00 | 0.00 | 0.00 | 100 | 1018.8 |
| 20260903034606 | 69 | 0 | 0.0 | 4.0 | 0.00 | 0.00 | 0.00 | 100 | 1019.2 |
| 20260903033056 | 69 | 0 | 0.0 | 0.0 | 0.00 | 0.00 | 0.00 | 100 | 1019.5 |
| 20260903031555 | 69 | 0 | 0.0 | 0.0 | 0.00 | 0.00 | 0.00 | 100 | 1019.3 |
| 20260903030058 | 68 | 0 | 0.0 | 4.0 | 0.00 | 0.00 | 0.00 | 100 | 1018.6 |
| 20260903024555 | 68 | 0 | 0.0 | 3.0 | 0.00 | 0.00 | 0.00 | 100 | 1018.6 |
| 20260903023122 | 68 | 0 | 0.0 | 4.0 | 0.00 | 0.00 | 0.00 | 100 | 1018.9 |
| 20260903021559 | 68 | 0 | 0.0 | 0.0 | 0.00 | 0.00 | 0.00 | 100 | 1019.1 |
| 20260903020100 | 68 | 0 | 0.0 | 3.0 | 0.00 | 0.00 | 0.00 | 100 | 1019.0 |
| 20260903014603 | 68 | 74 | 0.0 | 3.0 | 0.00 | 0.00 | 0.00 | 100 | 1018.7 |
| 20260903013056 | 68 | 0 | 0.0 | 4.0 | 0.00 | 0.00 | 0.00 | 100 | 1018.7 |
| 20260903011602 | 68 | 0 | 0.0 | 4.0 | 0.00 | 0.00 | 0.00 | 100 | 1018.8 |
| 20260903004557 | 69 | 0 | 0.0 | 4.0 | 0.00 | 0.00 | 0.00 | 100 | 1019.3 |
| 20260903003055 | 69 | 0 | 0.0 | 4.0 | 0.00 | 0.00 | 0.00 | 100 | 1019.1 |
| 20260903001600 | 69 | 0 | 0.0 | 0.0 | 0.00 | 0.00 | 0.00 | 100 | 1018.8 |
| 20260903000059 | 69 | 0 | 0.0 | 6.0 | 0.00 | 0.00 | 0.00 | 100 | 1018.5 |
| 20260902234605 | 69 | 0 | 0.0 | 0.0 | 0.00 | 0.00 | 0.00 | 100 | 1018.5 |
| 20260902233054 | 69 | 0 | 0.0 | 0.0 | 0.00 | 0.00 | 0.00 | 99 | 1018.5 |
| 20260902231602 | 69 | 0 | 0.0 | 0.0 | 0.00 | 0.00 | 0.00 | 99 | 1018.5 |
| 20260902230056 | 69 | 0 | 1.0 | 6.0 | 0.00 | 0.00 | 0.00 | 99 | 1018.5 |
| 20260902224603 | 69 | 0 | 0.0 | 5.0 | 0.00 | 0.00 | 0.00 | 99 | 1018.6 |
| 20260902223107 | 69 | 0 | 0.0 | 4.0 | 0.00 | 0.00 | 0.00 | 99 | 1018.9 |
| 20260902221557 | 70 | 0 | 0.0 | 4.0 | 0.00 | 0.00 | 0.00 | 99 | 1019.1 |
| 20260902214602 | 70 | 0 | 0.0 | 3.0 | 0.00 | 0.00 | 0.00 | 99 | 1019.2 |
| 20260902213106 | 70 | 0 | 0.0 | 5.0 | 0.00 | 0.00 | 0.00 | 99 | 1019.3 |
| 20260902211608 | 70 | 0 | 0.0 | 4.0 | 0.00 | 0.00 | 0.00 | 99 | 1018.8 |
| 20260902210106 | 70 | 49 | 1.0 | 6.0 | 0.00 | 0.00 | 0.00 | 99 | 1018.9 |
| 20260902204605 | 70 | 66 | 0.0 | 3.0 | 0.00 | 0.00 | 0.00 | 99 | 1018.7 |
| 20260902203106 | 70 | 0 | 0.0 | 3.0 | 0.00 | 0.00 | 0.00 | 99 | 1018.8 |
| 20260902201609 | 70 | 0 | 0.0 | 6.0 | 0.00 | 0.00 | 0.00 | 99 | 1019.1 |
| 20260902200104 | 69 | 80 | 2.0 | 9.0 | 0.00 | 0.00 | 0.00 | 99 | 1018.9 |
| 20260902194604 | 69 | 0 | 1.0 | 9.0 | 0.00 | 0.00 | 0.00 | 99 | 1018.9 |
| 20260902193103 | 70 | 0 | 0.0 | 4.0 | 0.00 | 0.00 | 0.00 | 100 | 1019.2 |
| 20260902191602 | 69 | 0 | 0.0 | 3.0 | 0.00 | 0.00 | 0.00 | 99 | 1019.3 |
| 20260902190057 | 69 | 0 | 0.0 | 0.0 | 0.00 | 0.00 | 0.00 | 99 | 1019.6 |
| 20260902184559 | 69 | 0 | 0.0 | 0.0 | 0.00 | 0.00 | 0.00 | 99 | 1019.9 |
| 20260902183107 | 69 | 0 | 0.0 | 0.0 | 0.00 | 0.00 | 0.00 | 99 | 1020.1 |
| 20260902181556 | 69 | 0 | 0.0 | 0.0 | 0.00 | 0.00 | 0.00 | 99 | 1020.4 |
| 20260902174600 | 69 | 0 | 0.0 | 0.0 | 0.00 | 0.00 | 0.00 | 99 | 1020.2 |
| 20260902173106 | 69 | 0 | 0.0 | 3.0 | 0.00 | 0.00 | 0.00 | 99 | 1020.3 |
| 20260902171610 | 69 | 0 | 0.0 | 3.0 | 0.00 | 0.00 | 0.00 | 100 | 1020.2 |
| 20260902170058 | 69 | 0 | 1.0 | 6.0 | 0.00 | 0.00 | 0.00 | 100 | 1020.7 |
| 20260902164556 | 69 | 0 | 0.0 | 0.0 | 0.00 | 0.00 | 0.00 | 100 | 1020.8 |
| 20260902163101 | 69 | 0 | 0.0 | 0.0 | 0.00 | 0.00 | 0.00 | 100 | 1020.7 |